Dewpoint
41 40 38 37 38 36 34 36 36 36 37 38 39 38 39 38 37 36 36 37 39 38 40 39 39 40 43 44 44 44 43 44 43 43 43 42 42 42 43 41 42 43 42 41 40 38 37 37 37 34 33 24
40 40 39 37 36 36 36 34 35 36 36 36 37 38 37 37 36 36 34 33 36 36 37 36 38 40 42 42 42 44 44 44 44 43 43 41 42 42 42 41 42 41 40 39 38 36 36 36 36 31 31 22
38 40 40 40 38 37 37 36 35 36 35 36 36 36 36 35 34 35 33 30 32 32 35 33 36 40 41 40 41 41 41 41 42 43 43 43 42 41 42 42 42 38 37 37 36 35 35 35 33 29 29 24
34 43 41 41 41 40 39 39 38 37 37 36 36 35 35 35 41 37 31 30 27 31 32 30 33 38 39 38 39 39 38 39 39 39 40 40 42 42 41 40 37 34 34 34 33 32 33 32 30 19 21 21
33 35 41 46 48 42 41 40 39 39 38 38 41 39 40 37 28 28 26 24 25 31 32 30 35 36 35 37 37 36 36 37 37 37 38 39 39 38 38 37 32 30 30 31 30 31 30 31 18 20 20 21
33 34 39 37 36 36 40 46 44 40 38 43 35 43 36 31 34 30 27 27 32 31 28 31 36 32 32 35 34 34 34 34 35 36 37 37 36 36 36 33 20 24 29 30 28 28 29 21 20 19 19 19
32 33 32 32 34 36 41 42 40 37 38 35 33 34 30 35 30 28 30 28 30 32 34 34 32 30 32 33 33 32 32 32 33 34 35 34 34 34 31 23 20 20 20 20 30 29 22 19 19 19 19 19
30 31 31 31 31 33 34 35 36 34 33 33 32 31 30 31 29 29 28 34 34 32 31 24 30 30 30 30 31 30 32 31 30 32 32 32 31 31 27 21 19 20 18 21 20 19 18 18 18 18 18 21
28 28 30 30 30 31 32 32 32 31 31 32 31 30 30 29 28 28 27 26 24 22 23 22 21 21 20 23 20 29 24 22 22 23 21 20 25 20 22 21 19 19 20 22 19 18 17 18 18 18 21 18
29 32 28 27 28 29 30 31 30 29 29 29 30 29 29 30 29 26 26 25 23 23 22 22 20 20 20 20 22 25 21 20 21 20 19 19 19 19 19 19 19 19 24 18 18 18 18 17 17 17 18 18
26 28 28 27 27 29 28 29 29 28 27 26 27 28 30 29 27 25 23 22 22 21 21 20 20 19 20 19 18 24 22 20 20 20 19 19 18 19 19 18 18 19 18 18 18 18 18 19 19 19 18 18
22 23 25 26 32 32 35 32 28 27 26 26 25 27 27 31 26 24 22 22 21 20 20 20 20 20 20 20 19 21 22 20 19 18 18 18 19 18 18 18 17 17 17 18 19 18 18 18 18 19 19 18
22 22 24 27 27 27 33 31 28 26 25 24 25 26 28 30 26 24 22 21 20 19 19 19 19 19 18 18 17 20 18 20 18 17 17 18 18 17 17 17 16 18 19 19 18 17 17 17 18 19 19 18
22 23 23 25 26 26 31 30 29 28 25 23 22 21 25 26 27 24 22 21 20 20 19 19 19 21 19 18 18 19 17 18 19 17 17 17 17 17 17 16 16 21 18 17 17 17 18 18 18 18 18 18
25 27 24 29 26 25 25 26 31 29 28 25 23 23 23 25 26 28 24 21 20 19 19 18 18 18 18 18 17 18 17 18 19 19 19 18 17 17 17 17 18 18 17 17 16 19 17 17 17 17 17 18
25 25 27 29 27 26 26 29 27 25 26 30 27 25 23 23 23 28 26 24 22 20 19 18 18 17 17 16 16 18 17 17 18 19 19 20 20 20 19 18 17 17 17 16 17 17 17 17 16 16 17 17
24 25 25 25 26 27 30 27 27 25 25 25 24 25 24 24 23 29 24 23 24 28 23 20 19 18 21 18 17 17 20 20 19 19 19 18 19 18 18 18 17 19 18 17 15 15 15 15 16 15 16 16
22 24 26 28 25 28 27 25 25 28 26 27 28 26 25 24 24 27 24 23 22 22 20 20 19 19 18 17 18 18 19 18 18 17 17 16 17 20 21 16 15 15 15 15 15 15 15 15 15 15 15 15
25 24 23 23 24 23 25 27 24 24 24 23 23 24 23 24 25 27 24 23 22 21 20 19 18 18 18 18 20 18 18 18 17 17 16 17 15 15 15 15 17 17 15 15 14 14 16 14 14 15 14 14
21 21 21 23 30 23 24 24 23 23 23 24 23 24 23 23 24 26 24 23 23 21 20 19 18 18 18 18 19 18 17 19 17 16 17 17 17 14 13 19 15 15 14 14 14 14 14 13 16 13 13 13
22 23 21 23 24 25 24 21 20 22 23 23 22 21 21 21 23 25 24 23 23 21 20 19 18 18 18 19 18 17 17 16 19 17 18 16 20 17 15 14 14 14 14 13 13 13 13 13 15 13 12 12
23 24 23 21 21 28 21 21 21 21 22 21 21 21 21 21 22 26 23 22 22 21 20 20 19 18 18 18 18 17 16 16 16 16 16 15 15 16 16 14 13 12 12 14 14 13 13 13 12 12 12 12
22 22 22 20 20 20 21 20 20 22 21 22 20 20 20 21 23 24 23 22 22 20 20 21 21 20 19 19 18 16 16 15 16 18 15 14 14 17 16 14 13 13 14 14 15 14 13 13 12 12 12 16
21 20 21 20 19 19 19 19 23 22 21 20 20 22 22 21 21 21 23 21 20 20 20 20 18 18 18 18 18 17 16 15 15 14 15 15 14 14 16 20 16 15 15 15 13 15 14 13 13 12 13 11
20 20 20 19 18 18 18 20 23 19 19 19 20 22 21 21 21 20 20 21 21 19 20 22 19 18 17 17 18 17 16 15 15 15 15 16 18 17 15 14 14 14 14 13 11 11 11 11 11 16 15 12
20 21 22 21 19 19 20 19 19 18 19 20 22 21 21 21 20 20 20 21 20 21 20 18 18 17 17 17 17 17 18 16 22 19 18 17 15 16 15 13 14 16 14 10 8 7 7 9 9 13 14 12
21 22 22 21 21 20 20 21 20 20 22 21 21 20 20 21 20 20 20 20 21 20 19 19 18 17 17 16 19 18 16 16 16 16 16 16 14 13 16 16 15 14 12 9 10 11 9 7 6 12 16 15
22 22 22 21 20 20 20 18 23 22 20 20 20 21 22 22 22 22 21 21 20 20 19 18 18 17 17 16 17 16 15 14 13 14 14 14 16 14 11 11 12 18 14 11 10 7 7 6 7 5 4 7
21 18 16 15 14 15 14 14 15 16 16 18 21 22 21 21 22 22 21 21 20 20 20 19 18 18 17 17 16 16 15 13 13 13 13 13 14 14 11 10 10 15 15 13 12 9 7 6 5 4 4 5
18 15 14 12 11 10 11 11 13 15 16 18 18 19 20 21 21 21 21 20 20 19 20 19 19 18 17 17 17 17 15 14 13 13 13 12 12 12 13 11 10 9 19 13 16 12 8 7 8 8 6 5
17 12 12 10 9 9 10 11 13 15 16 17 17 19 18 20 20 20 20 19 19 19 19 19 18 18 17 17 16 18 16 15 14 13 13 15 13 12 15 12 10 10 10 14 15 15 12 13 12 8 6 6